#timestamp,LO_Frequency,Hit,StdDev 
1585418415.8,286047004.1,N
1585418435.7,286047002.4,N
1585418455.5,286046999.2,N
1585418475.4,286046996.6,N
1585418495.2,286046998.7,N
1585418515.0,286046998.8,N
1585418515.9,286046998.8,N
1585418535.8,286047001.2,N
1585418555.6,286046998.1,N
1585418575.5,286046998.5,N
1585418595.3,286046998.1,N
1585418615.1,286046996.5,N
1585418635.9,286046999.3,N
1585418655.7,286046998.2,N
1585418675.5,286046998.6,N
1585418695.4,286047000.4,N
1585418715.2,286046998.2,N
1585418735.1,286046998.0,N
1585418736.0,286046998.0,N
1585418755.8,286046997.9,N
1585418775.6,286046997.1,N
1585418795.5,286046999.1,N
1585418815.3,286046998.3,N
1585418835.2,286046998.6,N
1585418855.9,286046998.6,N
1585418875.7,286046999.5,N
1585418895.6,286046996.5,N
1585418945.4,286046999.7,E
1585418955.4,286047000.0,N
1585418975.2,286046999.9,P
1585418995.0,286047001.9,P
1585418995.9,286047001.9,N
1585419015.8,286047001.2,N
1585419035.6,286046999.8,N
1585419055.4,286047000.9,N
1585419075.3,286046999.2,N
1585419095.1,286046996.9,Y
1585419115.9,286046997.1,P
1585419135.7,286047001.0,N
1585419155.6,286046999.0,N
1585419175.4,286046999.0,N
1585419195.2,286046995.1,Y
1585419215.1,286046997.4,P
1585419216.0,286046997.4,N
1585419235.8,286046997.3,N
1585419255.7,286046997.3,Y
1585419275.5,286046999.1,P
1585419295.3,286046996.6,P
1585419315.2,286046997.0,N
1585419335.0,286046998.1,N
1585419335.9,286046998.1,N
1585419355.7,286046998.3,N
1585419375.6,286046996.5,Y
1585419395.4,286047001.0,P
1585419415.3,286047000.8,N
1585419435.1,286046998.3,N
1585419455.8,286046998.3,N
1585419475.7,286046996.8,N
1585419495.5,286046998.9,N
1585419515.4,286046999.3,N
1585419535.2,286046997.2,N
1585419555.0,286046999.4,N
1585419555.9,286046999.4,N
1585419575.8,286046994.9,Y
1585419595.6,286046997.5,P
1585419615.4,286046994.9,P
1585419635.3,286046997.4,N
1585419655.1,286046995.3,Y
1585419675.9,286047000.9,P
1585419695.7,286046998.6,N
1585419715.5,286046998.4,N
1585419735.4,286047001.0,N
1585419755.2,286047001.1,N
1585419775.1,286047001.0,N
1585419776.0,286047001.0,N
1585419795.8,286047000.9,N
1585419815.7,286047000.6,N
1585419835.5,286046998.1,N
1585419855.3,286046996.5,N
1585419875.2,286047001.6,N
1585419895.0,286047025.2,Y
1585419895.9,286047025.2,P
1585419915.8,286047027.6,N
1585419935.6,286047028.2,N
1585419955.4,286047020.5,N
1585419975.3,286047016.4,N
1585419995.1,286047012.9,N
1585420015.9,286047012.9,N
1585420035.7,286047012.4,N
1585420055.5,286047010.7,N
1585420075.4,286047009.0,N
1585420095.2,286047005.2,N
1585420115.0,286047005.9,N
1585420116.0,286047005.9,N
1585420135.8,286047003.9,N
1585420155.6,286047001.4,N
1585420175.5,286047000.2,N
1585420195.3,286047000.7,N
1585420215.2,286047000.9,N
1585420235.9,286046996.5,N
1585420255.7,286046994.9,N
1585420275.6,286046993.7,N
1585420295.4,286046994.4,N
1585420315.2,286046994.4,N
1585420335.1,286046994.5,N
1585420336.0,286046994.5,N
1585420355.8,286046996.3,N
1585420375.7,286046993.5,N
1585420395.5,286046993.8,N
1585420415.4,286046996.3,N
1585420435.2,286046993.6,N
1585420455.0,286046994.5,N
1585420455.9,286046994.5,N
1585420475.8,286046996.4,N
1585420495.6,286046996.4,N
1585420515.5,286046995.8,N
1585420535.3,286046993.8,N
1585420555.2,286046995.5,N
1585420575.9,286046995.9,N
1585420595.7,286046997.7,N
1585420615.6,286046995.4,N
1585420635.4,286046995.1,N
1585420655.3,286046994.9,N
1585420675.1,286046997.6,N
1585420676.0,286046997.6,N
1585420695.8,286046997.1,N
1585420715.7,286046994.9,N
1585420735.5,286046999.6,N
1585420755.4,286047000.8,N
1585420775.2,286046998.7,N
1585420795.0,286046996.6,N
1585420795.9,286046996.6,N
1585420815.8,286046999.0,N
1585420835.6,286046998.9,N
1585420855.5,286046998.6,N
1585420875.3,286046999.6,N
1585420895.2,286046997.0,N
1585420915.1,286046999.1,N
1585420916.0,286046999.1,N
1585420935.8,286046997.4,N
1585420955.6,286046997.8,N
1585420975.5,286046999.6,N
1585420995.3,286046998.9,N
1585421015.2,286046998.9,N
1585421035.9,286046996.9,N
1585421055.7,286046999.1,N
1585421075.6,286046998.9,N
1585421095.4,286046999.3,N
1585421115.2,286046999.2,N
1585421135.1,286047000.7,N
1585421136.0,286047000.7,N
1585421155.8,286047001.2,N
1585421175.7,286047002.8,N
1585421195.5,286047002.8,N
1585421215.3,286047002.2,N
1585421235.2,286047002.1,N
1585421255.0,286047005.5,N
1585421255.9,286047005.5,N
1585421275.8,286047003.8,N
1585421295.6,286047002.2,N
1585421315.4,286047000.4,N
1585421335.3,286047003.6,N
1585421355.1,286047003.8,N
1585421375.8,286047003.4,N
1585421395.7,286047001.6,N
1585421415.5,286047001.3,N
1585421435.4,286047001.6,N
1585421455.2,286047002.2,N
1585421475.0,286047001.3,N
1585421476.0,286047001.3,N
1585421495.8,286047002.9,N
1585421515.6,286047003.0,N
1585421535.5,286047003.6,N
1585421555.3,286047005.6,N
1585421575.1,286047001.6,N
1585421595.9,286047002.5,N
1585421615.7,286047003.7,N
1585421635.6,286047005.4,Y
1585421655.4,286046999.8,P
1585421675.2,286047002.6,N
1585421695.1,286046999.3,N
1585421696.0,286046999.3,N
1585421715.8,286047000.5,N
1585421735.7,286046998.5,N
1585421755.5,286047001.2,N
1585421775.3,286047000.6,N
1585421795.2,286047002.1,N
1585421815.0,286047004.0,N
1585421815.9,286047004.0,N
1585421835.7,286047002.2,N
1585421855.6,286047002.8,N
1585421875.4,286047003.9,N
1585421895.3,286047001.9,N
1585421915.1,286047002.1,N
1585421935.8,286047001.8,N
1585421955.7,286047005.7,Y
1585421975.5,286047002.4,P
1585421995.4,286047000.7,N
